Time,TemperatureF,DewpointF,PressureIn,WindDirection,WindDirectionDegrees,WindSpeedMPH,WindSpeedGustMPH,Humidity,HourlyPrecipIn,Conditions,Clouds,dailyrainin,SolarRadiationWatts/m^2,SoftwareType,DateUTC
2013-01-12 00:02:00,18.0,13.0,-100.00,North,-999,-999.0,3.0,81,0.00,,,-99.99,0.000000,,2013-01-12 07:02:00,
2013-01-12 00:11:00,18.0,14.0,-100.00,North,-999,-999.0,4.0,85,0.00,,,-99.99,0.000000,,2013-01-12 07:11:00,
2013-01-12 00:21:00,17.0,14.0,-100.00,North,-999,-999.0,3.0,87,0.00,,,-99.99,0.000000,,2013-01-12 07:21:00,
2013-01-12 00:32:00,17.0,14.0,-100.00,North,-999,-999.0,3.0,88,0.00,,,-99.99,0.000000,,2013-01-12 07:32:00,
2013-01-12 00:42:00,16.0,13.0,-100.00,North,-999,-999.0,2.0,88,0.00,,,-99.99,0.000000,,2013-01-12 07:42:00,
2013-01-12 00:50:00,15.0,12.0,-100.00,North,-999,-999.0,3.0,90,0.00,,,-99.99,0.000000,,2013-01-12 07:50:00,
2013-01-12 00:52:00,16.0,13.0,-100.00,North,-999,-999.0,2.0,89,0.00,,,-99.99,0.000000,,2013-01-12 07:52:00,
2013-01-12 01:02:00,16.0,13.0,-100.00,North,-999,-999.0,2.0,88,0.00,,,-99.99,0.000000,,2013-01-12 08:02:00,
2013-01-12 01:11:00,15.0,12.0,-100.00,North,-999,-999.0,3.0,90,0.00,,,-99.99,0.000000,,2013-01-12 08:11:00,
2013-01-12 01:22:00,15.0,12.0,-100.00,North,-999,-999.0,3.0,90,0.00,,,-99.99,0.000000,,2013-01-12 08:22:00,
2013-01-12 01:32:00,15.0,12.0,-100.00,North,-999,-999.0,3.0,90,0.00,,,-99.99,0.000000,,2013-01-12 08:32:00,
2013-01-12 01:42:00,15.0,12.0,-100.00,North,-999,-999.0,3.0,90,0.00,,,-99.99,0.000000,,2013-01-12 08:42:00,
2013-01-12 02:22:00,13.0,10.0,-100.00,North,-999,-999.0,4.0,90,0.00,,,-99.99,0.000000,,2013-01-12 09:22:00,
2013-01-12 02:32:00,12.0,9.0,-100.00,North,-999,-999.0,5.0,89,0.00,,,-99.99,0.000000,,2013-01-12 09:32:00,
2013-01-12 02:42:00,12.0,10.0,-100.00,North,-999,-999.0,4.0,90,0.00,,,-99.99,0.000000,,2013-01-12 09:42:00,
2013-01-12 02:53:00,13.0,10.0,-100.00,North,-999,-999.0,4.0,91,0.00,,,-99.99,0.000000,,2013-01-12 09:53:00,
2013-01-12 03:02:00,12.0,9.0,-100.00,North,-999,-999.0,4.0,89,0.00,,,-99.99,0.000000,,2013-01-12 10:02:00,
2013-01-12 03:11:00,11.0,9.0,-100.00,North,-999,-999.0,4.0,90,0.00,,,-99.99,0.000000,,2013-01-12 10:11:00,
2013-01-12 03:22:00,12.0,10.0,-100.00,North,-999,-999.0,4.0,91,0.00,,,-99.99,0.000000,,2013-01-12 10:22:00,
2013-01-12 03:32:00,12.0,10.0,-100.00,North,-999,-999.0,2.0,90,0.00,,,-99.99,0.000000,,2013-01-12 10:32:00,
2013-01-12 03:42:00,11.0,9.0,-100.00,North,-999,-999.0,3.0,90,0.00,,,-99.99,0.000000,,2013-01-12 10:42:00,
2013-01-12 03:52:00,14.0,11.0,-100.00,North,-999,-999.0,6.0,91,0.00,,,-99.99,0.000000,,2013-01-12 10:52:00,
2013-01-12 04:02:00,14.0,11.0,-100.00,North,-999,-999.0,6.0,90,0.00,,,-99.99,0.000000,,2013-01-12 11:02:00,
2013-01-12 04:12:00,14.0,11.0,-100.00,North,-999,-999.0,5.0,89,0.00,,,-99.99,0.000000,,2013-01-12 11:12:00,
2013-01-12 04:22:00,14.0,11.0,-100.00,North,-999,-999.0,7.0,88,0.00,,,-99.99,0.000000,,2013-01-12 11:22:00,
2013-01-12 04:32:00,13.0,10.0,-100.00,North,-999,-999.0,5.0,88,0.00,,,-99.99,0.000000,,2013-01-12 11:32:00,
2013-01-12 04:42:00,14.0,11.0,-100.00,North,-999,-999.0,8.0,86,0.00,,,-99.99,0.000000,,2013-01-12 11:42:00,
2013-01-12 04:52:00,14.0,11.0,-100.00,North,-999,-999.0,8.0,85,0.00,,,-99.99,0.000000,,2013-01-12 11:52:00,
2013-01-12 05:02:00,14.0,10.0,-100.00,North,-999,-999.0,8.0,85,0.00,,,-99.99,0.000000,,2013-01-12 12:02:00,
2013-01-12 05:11:00,14.0,11.0,-100.00,North,-999,-999.0,9.0,86,0.00,,,-99.99,0.000000,,2013-01-12 12:11:00,
2013-01-12 05:22:00,13.0,10.0,-100.00,North,-999,-999.0,9.0,87,0.00,,,-99.99,0.000000,,2013-01-12 12:22:00,
2013-01-12 05:32:00,14.0,10.0,-100.00,North,-999,-999.0,10.0,86,0.00,,,-99.99,0.000000,,2013-01-12 12:32:00,
2013-01-12 05:42:00,13.0,9.0,-100.00,North,-999,-999.0,12.0,84,0.00,,,-99.99,0.000000,,2013-01-12 12:42:00,
2013-01-12 05:50:00,13.0,9.0,-100.00,North,-999,-999.0,10.0,85,0.00,,,-99.99,0.000000,,2013-01-12 12:50:00,
2013-01-12 05:52:00,13.0,9.0,-100.00,North,-999,-999.0,11.0,85,0.00,,,-99.99,0.000000,,2013-01-12 12:52:00,
2013-01-12 06:02:00,13.0,9.0,-100.00,North,-999,-999.0,8.0,86,0.00,,,-99.99,0.000000,,2013-01-12 13:02:00,
2013-01-12 06:11:00,13.0,9.0,-100.00,North,-999,-999.0,10.0,85,0.00,,,-99.99,0.000000,,2013-01-12 13:11:00,
2013-01-12 06:22:00,13.0,9.0,-100.00,North,-999,-999.0,10.0,85,0.00,,,-99.99,0.000000,,2013-01-12 13:22:00,
2013-01-12 06:32:00,13.0,9.0,-100.00,North,-999,-999.0,10.0,85,0.00,,,-99.99,0.000000,,2013-01-12 13:32:00,
2013-01-12 06:42:00,13.0,9.0,-100.00,North,-999,-999.0,10.0,85,0.00,,,-99.99,0.000000,,2013-01-12 13:42:00,
2013-01-12 07:22:00,13.0,11.0,-100.00,North,-999,-999.0,3.0,90,0.00,,,-99.99,0.000000,,2013-01-12 14:22:00,
2013-01-12 07:33:00,13.0,10.0,-100.00,North,-999,-999.0,7.0,89,0.00,,,-99.99,0.000000,,2013-01-12 14:33:00,
2013-01-12 07:43:00,13.0,11.0,-100.00,North,-999,-999.0,4.0,90,0.00,,,-99.99,0.000000,,2013-01-12 14:43:00,
2013-01-12 07:53:00,13.0,11.0,-100.00,North,-999,-999.0,4.0,90,0.00,,,-99.99,0.000000,,2013-01-12 14:53:00,
2013-01-12 08:03:00,13.0,11.0,-100.00,North,-999,-999.0,3.0,91,0.00,,,-99.99,1.000000,,2013-01-12 15:03:00,
2013-01-12 08:12:00,14.0,11.0,-100.00,North,-999,-999.0,4.0,90,0.00,,,-99.99,2.000000,,2013-01-12 15:12:00,
2013-01-12 08:22:00,14.0,11.0,-100.00,North,-999,-999.0,7.0,88,0.00,,,-99.99,7.000000,,2013-01-12 15:22:00,
2013-01-12 08:33:00,14.0,11.0,-100.00,North,-999,-999.0,9.0,87,0.00,,,-99.99,16.000000,,2013-01-12 15:33:00,
2013-01-12 08:42:00,14.0,10.0,-100.00,North,-999,-999.0,10.0,85,0.00,,,-99.99,23.000000,,2013-01-12 15:42:00,
2013-01-12 08:52:00,14.0,10.0,-100.00,North,-999,-999.0,11.0,85,0.00,,,-99.99,27.000000,,2013-01-12 15:52:00,
2013-01-12 09:02:00,14.0,10.0,-100.00,North,-999,-999.0,11.0,85,0.00,,,-99.99,35.000000,,2013-01-12 16:02:00,
2013-01-12 09:12:00,14.0,10.0,-100.00,North,-999,-999.0,10.0,84,0.00,,,-99.99,65.000000,,2013-01-12 16:12:00,
2013-01-12 09:22:00,15.0,10.0,-100.00,North,-999,-999.0,9.0,83,0.00,,,-99.99,115.000000,,2013-01-12 16:22:00,
2013-01-12 09:32:00,14.0,10.0,-100.00,North,-999,-999.0,10.0,82,0.00,,,-99.99,115.000000,,2013-01-12 16:32:00,
2013-01-12 09:42:00,14.0,10.0,-100.00,North,-999,-999.0,11.0,83,0.00,,,-99.99,113.000000,,2013-01-12 16:42:00,
2013-01-12 09:52:00,14.0,10.0,-100.00,North,-999,-999.0,10.0,82,0.00,,,-99.99,113.000000,,2013-01-12 16:52:00,
2013-01-12 10:02:00,14.0,9.0,-100.00,North,-999,-999.0,10.0,81,0.00,,,-99.99,105.000000,,2013-01-12 17:02:00,
2013-01-12 10:12:00,14.0,9.0,-100.00,North,-999,-999.0,11.0,81,0.00,,,-99.99,141.000000,,2013-01-12 17:12:00,
2013-01-12 10:22:00,14.0,9.0,-100.00,North,-999,-999.0,10.0,80,0.00,,,-99.99,162.000000,,2013-01-12 17:22:00,
2013-01-12 10:32:00,15.0,10.0,-100.00,North,-999,-999.0,10.0,80,0.00,,,-99.99,238.000000,,2013-01-12 17:32:00,
2013-01-12 10:42:00,15.0,10.0,-100.00,North,-999,-999.0,11.0,79,0.00,,,-99.99,323.000000,,2013-01-12 17:42:00,
2013-01-12 10:50:00,16.0,10.0,-100.00,North,-999,-999.0,11.0,75,0.00,,,-99.99,262.000000,,2013-01-12 17:50:00,
2013-01-12 10:52:00,16.0,10.0,-100.00,North,-999,-999.0,12.0,77,0.00,,,-99.99,413.000000,,2013-01-12 17:52:00,
2013-01-12 11:02:00,15.0,10.0,-100.00,North,-999,-999.0,12.0,78,0.00,,,-99.99,280.000000,,2013-01-12 18:02:00,
2013-01-12 11:12:00,16.0,10.0,-100.00,North,-999,-999.0,11.0,75,0.00,,,-99.99,262.000000,,2013-01-12 18:12:00,
2013-01-12 11:22:00,16.0,10.0,-100.00,North,-999,-999.0,11.0,75,0.00,,,-99.99,262.000000,,2013-01-12 18:22:00,
2013-01-12 11:33:00,16.0,10.0,-100.00,North,-999,-999.0,11.0,75,0.00,,,-99.99,262.000000,,2013-01-12 18:33:00,
2013-01-12 11:42:00,16.0,10.0,-100.00,North,-999,-999.0,11.0,75,0.00,,,-99.99,262.000000,,2013-01-12 18:42:00,
2013-01-12 12:23:00,19.0,13.0,-100.00,North,-999,-999.0,5.0,76,0.00,,,-99.99,396.000000,,2013-01-12 19:23:00,
2013-01-12 12:33:00,19.0,13.0,-100.00,North,-999,-999.0,5.0,75,0.00,,,-99.99,461.000000,,2013-01-12 19:33:00,
2013-01-12 12:43:00,19.0,12.0,-100.00,North,-999,-999.0,5.0,74,0.00,,,-99.99,383.000000,,2013-01-12 19:43:00,
2013-01-12 12:52:00,19.0,13.0,-100.00,North,-999,-999.0,6.0,77,0.00,,,-99.99,442.000000,,2013-01-12 19:52:00,
2013-01-12 13:02:00,18.0,13.0,-100.00,North,-999,-999.0,6.0,78,0.00,,,-99.99,380.000000,,2013-01-12 20:02:00,
2013-01-12 13:12:00,18.0,12.0,-100.00,North,-999,-999.0,8.0,78,0.00,,,-99.99,314.000000,,2013-01-12 20:12:00,
2013-01-12 13:22:00,18.0,12.0,-100.00,North,-999,-999.0,8.0,79,0.00,,,-99.99,376.000000,,2013-01-12 20:22:00,
2013-01-12 13:32:00,18.0,11.0,-100.00,North,-999,-999.0,8.0,75,0.00,,,-99.99,402.000000,,2013-01-12 20:32:00,
2013-01-12 13:42:00,18.0,11.0,-100.00,North,-999,-999.0,8.0,71,0.00,,,-99.99,355.000000,,2013-01-12 20:42:00,
2013-01-12 13:52:00,19.0,10.0,-100.00,North,-999,-999.0,8.0,67,0.00,,,-99.99,310.000000,,2013-01-12 20:52:00,
2013-01-12 14:02:00,18.0,9.0,-100.00,North,-999,-999.0,10.0,68,0.00,,,-99.99,363.000000,,2013-01-12 21:02:00,
2013-01-12 14:12:00,18.0,11.0,-100.00,North,-999,-999.0,11.0,72,0.00,,,-99.99,410.000000,,2013-01-12 21:12:00,
2013-01-12 14:22:00,18.0,11.0,-100.00,North,-999,-999.0,9.0,73,0.00,,,-99.99,334.000000,,2013-01-12 21:22:00,
2013-01-12 14:32:00,18.0,11.0,-100.00,North,-999,-999.0,8.0,73,0.00,,,-99.99,278.000000,,2013-01-12 21:32:00,
2013-01-12 14:42:00,18.0,10.0,-100.00,North,-999,-999.0,9.0,70,0.00,,,-99.99,330.000000,,2013-01-12 21:42:00,
2013-01-12 14:52:00,18.0,10.0,-100.00,North,-999,-999.0,9.0,68,0.00,,,-99.99,322.000000,,2013-01-12 21:52:00,
2013-01-12 15:02:00,18.0,10.0,-100.00,North,-999,-999.0,12.0,71,0.00,,,-99.99,280.000000,,2013-01-12 22:02:00,
2013-01-12 15:12:00,17.0,9.0,-100.00,North,-999,-999.0,10.0,72,0.00,,,-99.99,236.000000,,2013-01-12 22:12:00,
2013-01-12 15:22:00,17.0,10.0,-100.00,North,-999,-999.0,9.0,73,0.00,,,-99.99,288.000000,,2013-01-12 22:22:00,
2013-01-12 15:32:00,17.0,10.0,-100.00,North,-999,-999.0,10.0,73,0.00,,,-99.99,191.000000,,2013-01-12 22:32:00,
2013-01-12 15:42:00,16.0,10.0,-100.00,North,-999,-999.0,7.0,75,0.00,,,-99.99,191.000000,,2013-01-12 22:42:00,
2013-01-12 15:50:00,16.0,9.0,-100.00,North,-999,-999.0,10.0,75,0.00,,,-99.99,136.000000,,2013-01-12 22:50:00,
2013-01-12 15:52:00,16.0,10.0,-100.00,North,-999,-999.0,9.0,75,0.00,,,-99.99,169.000000,,2013-01-12 22:52:00,
2013-01-12 16:02:00,16.0,9.0,-100.00,North,-999,-999.0,11.0,74,0.00,,,-99.99,155.000000,,2013-01-12 23:02:00,
2013-01-12 16:12:00,16.0,9.0,-100.00,North,-999,-999.0,10.0,75,0.00,,,-99.99,136.000000,,2013-01-12 23:12:00,
2013-01-12 16:22:00,16.0,9.0,-100.00,North,-999,-999.0,10.0,75,0.00,,,-99.99,136.000000,,2013-01-12 23:22:00,
2013-01-12 16:32:00,16.0,9.0,-100.00,North,-999,-999.0,10.0,75,0.00,,,-99.99,136.000000,,2013-01-12 23:32:00,
2013-01-12 16:42:00,16.0,9.0,-100.00,North,-999,-999.0,10.0,75,0.00,,,-99.99,136.000000,,2013-01-12 23:42:00,
2013-01-12 17:23:00,14.0,10.0,-100.00,North,-999,-999.0,10.0,82,0.00,,,-99.99,34.000000,,2013-01-13 00:23:00,
2013-01-12 17:33:00,14.0,10.0,-100.00,North,-999,-999.0,8.0,82,0.00,,,-99.99,20.000000,,2013-01-13 00:33:00,
2013-01-12 17:43:00,14.0,10.0,-100.00,North,-999,-999.0,7.0,84,0.00,,,-99.99,7.000000,,2013-01-13 00:43:00,
2013-01-12 17:53:00,14.0,10.0,-100.00,North,-999,-999.0,8.0,86,0.00,,,-99.99,3.000000,,2013-01-13 00:53:00,
2013-01-12 18:02:00,13.0,10.0,-100.00,North,-999,-999.0,9.0,86,0.00,,,-99.99,1.000000,,2013-01-13 01:02:00,
2013-01-12 18:12:00,13.0,9.0,-100.00,North,-999,-999.0,8.0,83,0.00,,,-99.99,0.000000,,2013-01-13 01:12:00,
2013-01-12 18:22:00,13.0,8.0,-100.00,North,-999,-999.0,7.0,81,0.00,,,-99.99,0.000000,,2013-01-13 01:22:00,
2013-01-12 18:32:00,13.0,7.0,-100.00,North,-999,-999.0,7.0,76,0.00,,,-99.99,0.000000,,2013-01-13 01:32:00,
2013-01-12 18:42:00,13.0,7.0,-100.00,North,-999,-999.0,7.0,75,0.00,,,-99.99,0.000000,,2013-01-13 01:42:00,
2013-01-12 18:52:00,13.0,7.0,-100.00,North,-999,-999.0,7.0,76,0.00,,,-99.99,0.000000,,2013-01-13 01:52:00,
2013-01-12 19:02:00,12.0,6.0,-100.00,North,-999,-999.0,7.0,75,0.00,,,-99.99,0.000000,,2013-01-13 02:02:00,
2013-01-12 19:12:00,12.0,5.0,-100.00,North,-999,-999.0,6.0,75,0.00,,,-99.99,0.000000,,2013-01-13 02:12:00,
2013-01-12 19:22:00,11.0,5.0,-100.00,North,-999,-999.0,8.0,75,0.00,,,-99.99,0.000000,,2013-01-13 02:22:00,
2013-01-12 19:32:00,11.0,5.0,-100.00,North,-999,-999.0,6.0,77,0.00,,,-99.99,0.000000,,2013-01-13 02:32:00,
2013-01-12 19:42:00,10.0,6.0,-100.00,North,-999,-999.0,6.0,81,0.00,,,-99.99,0.000000,,2013-01-13 02:42:00,
2013-01-12 19:52:00,10.0,6.0,-100.00,North,-999,-999.0,6.0,81,0.00,,,-99.99,0.000000,,2013-01-13 02:52:00,
2013-01-12 20:02:00,10.0,5.0,-100.00,North,-999,-999.0,5.0,79,0.00,,,-99.99,0.000000,,2013-01-13 03:02:00,
2013-01-12 20:12:00,9.0,4.0,-100.00,North,-999,-999.0,4.0,81,0.00,,,-99.99,0.000000,,2013-01-13 03:12:00,
2013-01-12 20:22:00,8.0,4.0,-100.00,North,-999,-999.0,5.0,82,0.00,,,-99.99,0.000000,,2013-01-13 03:22:00,
2013-01-12 20:32:00,9.0,4.0,-100.00,North,-999,-999.0,5.0,80,0.00,,,-99.99,0.000000,,2013-01-13 03:32:00,
2013-01-12 20:42:00,9.0,4.0,-100.00,North,-999,-999.0,6.0,77,0.00,,,-99.99,0.000000,,2013-01-13 03:42:00,
2013-01-12 20:50:00,10.0,2.0,-100.00,North,-999,-999.0,5.0,70,0.00,,,-99.99,0.000000,,2013-01-13 03:50:00,
2013-01-12 20:52:00,10.0,4.0,-100.00,North,-999,-999.0,6.0,74,0.00,,,-99.99,0.000000,,2013-01-13 03:52:00,
2013-01-12 21:02:00,10.0,2.0,-100.00,North,-999,-999.0,5.0,71,0.00,,,-99.99,0.000000,,2013-01-13 04:02:00,
2013-01-12 21:12:00,10.0,2.0,-100.00,North,-999,-999.0,5.0,70,0.00,,,-99.99,0.000000,,2013-01-13 04:12:00,
2013-01-12 21:22:00,10.0,2.0,-100.00,North,-999,-999.0,5.0,70,0.00,,,-99.99,0.000000,,2013-01-13 04:22:00,
2013-01-12 21:32:00,10.0,2.0,-100.00,North,-999,-999.0,5.0,70,0.00,,,-99.99,0.000000,,2013-01-13 04:32:00,
2013-01-12 21:42:00,10.0,2.0,-100.00,North,-999,-999.0,5.0,70,0.00,,,-99.99,0.000000,,2013-01-13 04:42:00,
2013-01-12 22:23:00,6.0,1.0,-100.00,North,-999,-999.0,4.0,80,0.00,,,-99.99,0.000000,,2013-01-13 05:23:00,
2013-01-12 22:32:00,5.0,0.0,-100.00,North,-999,-999.0,3.0,80,0.00,,,-99.99,0.000000,,2013-01-13 05:32:00,
2013-01-12 22:42:00,4.0,0.0,-100.00,North,-999,-999.0,2.0,81,0.00,,,-99.99,0.000000,,2013-01-13 05:42:00,
2013-01-12 22:53:00,4.0,0.0,-100.00,North,-999,-999.0,2.0,82,0.00,,,-99.99,0.000000,,2013-01-13 05:53:00,
2013-01-12 23:02:00,4.0,-1.0,-100.00,North,-999,-999.0,3.0,82,0.00,,,-99.99,0.000000,,2013-01-13 06:02:00,
2013-01-12 23:12:00,3.0,-1.0,-100.00,North,-999,-999.0,3.0,83,0.00,,,-99.99,0.000000,,2013-01-13 06:12:00,
2013-01-12 23:22:00,3.0,0.0,-100.00,North,-999,-999.0,2.0,84,0.00,,,-99.99,0.000000,,2013-01-13 06:22:00,
2013-01-12 23:32:00,3.0,-1.0,-100.00,North,-999,-999.0,2.0,84,0.00,,,-99.99,0.000000,,2013-01-13 06:32:00,
2013-01-12 23:42:00,3.0,-1.0,-100.00,North,-999,-999.0,3.0,84,0.00,,,-99.99,0.000000,,2013-01-13 06:42:00,
2013-01-12 23:52:00,4.0,0.0,-100.00,North,-999,-999.0,3.0,84,0.00,,,-99.99,0.000000,,2013-01-13 06:52:00,